This is the latest recevied weather packets stored in our database for station/object KR4ELZ. If no packets are shown the sender has not sent any weather packets the latest 10 day(s).
| Time | Temp. | Humidity | Pressure | Rain* | Wind** | Luminosity | Snow |
|---|---|---|---|---|---|---|---|
| 1777944798 | 20.56° C | 54% | 1010.4 hPa | 0 mm | - | 0 W/m² | - |
| 1777944497 | 20.56° C | 53% | 1010.5 hPa | 0 mm | - | 0 W/m² | - |
| 1777944194 | 20.56° C | 54% | 1010.4 hPa | 0 mm | - | 0 W/m² | - |
| 1777943889 | 21.11° C | 55% | 1010.3 hPa | 0 mm | - | 0 W/m² | - |
| 1777943587 | 21.11° C | 53% | 1010.4 hPa | 0 mm | - | 0 W/m² | - |
| 1777943282 | 21.67° C | 51% | 1010.6 hPa | 0 mm | - | 0 W/m² | - |
| 1777942979 | 21.67° C | 51% | 1010.5 hPa | 0 mm | - | 0 W/m² | - |
| 1777942674 | 21.67° C | 50% | 1010.3 hPa | 0 mm | - | 0 W/m² | - |
| 1777942372 | 22.22° C | 51% | 1010.5 hPa | 0 mm | - | 0 W/m² | - |
| 1777942069 | 22.22° C | 51% | 1010.3 hPa | 0 mm | - | 1 W/m² | - |
| 1777941765 | 22.22° C | 49% | 1010.3 hPa | 0 mm | - | 1 W/m² | - |
| 1777941463 | 22.78° C | 48% | 1010.5 hPa | 0 mm | - | 2 W/m² | - |
| 1777941160 | 22.78° C | 48% | 1010.3 hPa | 0 mm | - | 3 W/m² | - |
| 1777940856 | 22.78° C | 47% | 1010.3 hPa | 0 mm | - | 5 W/m² | - |
| 1777940554 | 23.33° C | 47% | 1010.3 hPa | 0 mm | - | 7 W/m² | - |
| 1777940251 | 23.89° C | 46% | 1010.2 hPa | 0 mm | - | 9 W/m² | - |
| 1777939949 | 23.89° C | 45% | 1010.3 hPa | 0 mm | - | 13 W/m² | - |
| 1777939645 | 23.89° C | 47% | 1010.4 hPa | 0 mm | - | 14 W/m² | - |
| 1777939343 | 23.89° C | 46% | 1010.3 hPa | 0 mm | - | 14 W/m² | - |
| 1777939040 | 25° C | 45% | 1010.2 hPa | 0 mm | - | 15 W/m² | - |
| 1777938736 | 25.56° C | 44% | 1010.2 hPa | 0 mm | - | 27 W/m² | - |
| 1777938433 | 25.56° C | 44% | 1010.2 hPa | 0 mm | - | 35 W/m² | - |
| 1777938130 | 25.56° C | 43% | 1010.2 hPa | 0 mm | - | 41 W/m² | - |
| 1777937826 | 25.56° C | 43% | 1010.1 hPa | 0 mm | - | 47 W/m² | - |
| 1777937523 | 25.56° C | 42% | 1010.3 hPa | 0 mm | - | 54 W/m² | - |
* Rain latest hour (hover to see other rain measurements)
** Current wind speed in m/s (hover to see current wind gust speed)